Location: Le Gr�zie
(43.6000°N, 13.5000°E)
Time: 22:49:12
(UTC+00:00)

SPOT 3 Rocket - Pass Details

Date: 09 April 2020
Orbit: 779 x 794 km, 98.8° (Epoch: 05 June)

Event Time Altitude Azimuth Distance (km) Brightness Sun altitude
Exits shadow 19:22:42 14° 173° (S) 2,110 5.4 -17.7°
Maximum altitude 19:27:17 72° 257° (WSW) 833 3.7 -18.4°
Drops below altitude 10° 19:32:29 10° 342° (NNW) 2,362 6.7 -19.2°
Sets 19:34:50 0° 345° (NNW) 3,293 7.5 -19.5°
